Regional Weather Roundup
Issued by NWS

Home | Current Version | Previous Version | Text Only | Print | Product List | Glossary On
Versions: 1 2 3 4 5 6 7 8 9 10 11 12 13 14 15 16 17 18 19 20 21 22 23 24 25 26 27 28
000
ASUS42 KKEY 310410
RWRKEY

FLORIDA REGIONAL WEATHER ROUNDUP FOR THE FLORIDA KEYS
NATIONAL WEATHER SERVICE KEY WEST FLORIDA
1200 AM EDT SUN JUL 31 2016

...SOUTH FLORIDA AND THE KEYS...

CITY           SKY/WX    TMP DP  RH WIND       PRES   REMARKS
FORT MYERS     PTCLDY    75  73  93 CALM      30.06S
SW REGIONAL AP PTCLDY    74  71  91 SE3       30.07S
NAPLES         MOCLDY    76  72  87 E3        30.06S
MIAMI          MOCLDY    82  72  71 SE7       30.08S
WEST KENDALL   CLEAR     82  73  74 SE3       30.07F
HOMESTEAD      PTCLDY    81  74  80 CALM      30.07F
MARATHON       CLOUDY    82  75  79 E5        30.06F
BOCA CHICA NAS CLOUDY    82  75  79 E12       30.05F
KEY WEST INTL  CLOUDY    84  77  79 SE12      30.06F HX  94

...INTERNATIONAL WEATHER...

CITY           SKY/WX    TMP DP  RH WIND       PRES   REMARKS
NASSAU BAHAMAS NOT AVBL
CANCUN MEXICO  PTCLDY    79  75  89 NE6       30.03S
COZUMEL MEXICO PTCLDY    75  75 100 E5        30.03S

ADJACENT COASTAL WATERS...

STATION/POSITION TIME  SKY/WX   TEMP    WIND        PRES    WAVE
                                AIR SEA DIR/SP/G            HT/PER
                 (UTC)          (F)     (DEG/KT/KT) (MB)    (FT/S)
PULASKI SHOAL LI 0400            85     140/ 10/ 11 1017.9F
SAND KEY         0350            83     120/  9/ 10 1018.3F
LONG KEY         0300            83 90  120/  9/ 10 1018.9R
FOWEY ROCKS      0400            83 85  120/ 10/ 11 1018.7F

$$




USA.gov is the U.S. government's official web portal to all federal, state and local government web resources and services.